Flag for U.S.A. Weather past 2 weeks in Salem, Oregon, U.S.A.

Now
80 °F

Sunny.


Feels Like: 81 °F
Forecast: 64 / 72 °F
Wind: 10 mph from North

Location: McNary Field

Current Time: Aug 28, 2015 at 5:43:31 PM

Latest Report: Aug 28, 2015 at 4:56 PM


Visibility: 10 mi

Pressure: 29.78 "Hg

Humidity: 47%

Dew point: 58 °F

Location of SalemLocation

Historic Weather in Salem — Graph

°F

Salem temperature yesterday

Maximum temperature yesterday: 89 °F (at 4:56 PM)
Minimum temperature yesterday: 54 °F (at 4:56 AM)
Average temperature yesterday: 71 °F

Past Weeks' High & Low Weather Summary

 TemperatureHumidityPressure
High97 °F (Aug 19, 3:56 PM)84% (Aug 17, 5:56 AM)30.25 "Hg (Aug 17, 5:56 AM)
Low52 °F (Aug 25, 5:56 AM)13% (Aug 25, 5:56 PM)29.80 "Hg (Aug 19, 5:56 PM)
Average70 °F52%29.99 "Hg
* Reported Aug 13 3:56 PM — Aug 28 3:56 PM, Salem, Weather by CustomWeather, © 2015

Note: Actual official high and low records may vary slightly from our data, if they occured in-between our weather recording intervals... More about our weather records

Advertising

Salem weather history for previous 24 hours

 ConditionsComfort  
Time TempWeatherWind HumidityBarometerVisibility
3:56 PM
Fri, Aug 28
80 °FSunny.9 mph47%29.81 "Hg10 mi
2:56 PM81 °FPartly sunny.3 mph44%29.83 "Hg10 mi
1:56 PM79 °FPassing clouds.5 mph47%29.87 "Hg10 mi
12:56 PM77 °FSunny.5 mph50%29.89 "Hg10 mi
11:56 AM76 °FSunny.3 mph52%29.93 "Hg10 mi
10:56 AM73 °FSunny.No wind55%29.93 "Hg10 mi
9:56 AM70 °FOvercast.3 mph55%29.95 "Hg10 mi
8:56 AM67 °FOvercast.6 mph63%29.96 "Hg10 mi
7:56 AM67 °FOvercast.3 mph66%29.97 "Hg10 mi
6:56 AM65 °FOvercast.No wind70%29.98 "Hg10 mi
6:04 AM67 °FLight rain. Overcast.3 mph57%30.00 "Hg10 mi
5:56 AM67 °FOvercast.5 mph57%30.00 "Hg10 mi
4:56 AM66 °FOvercast.3 mph56%29.99 "Hg10 mi
3:56 AM68 °FMostly cloudy.8 mph55%30.01 "Hg10 mi
2:56 AM68 °FMostly cloudy.3 mph59%30.02 "Hg10 mi
1:56 AM69 °FPassing clouds.6 mph49%30.02 "Hg10 mi
12:56 AM69 °FClear.6 mph45%30.02 "Hg10 mi
11:56 PM
Thu, Aug 27
69 °FClear.No wind39%30.01 "Hg10 mi
10:56 PM70 °FClear.3 mph37%30.00 "Hg10 mi
9:56 PM73 °FClear.8 mph30%30.00 "Hg10 mi
8:56 PM77 °FSunny.5 mph26%29.98 "Hg10 mi
7:56 PM81 °FSunny.9 mph27%29.96 "Hg10 mi
6:56 PM86 °FSunny.9 mph26%29.94 "Hg10 mi
5:56 PM88 °FSunny.3 mph22%29.95 "Hg10 mi
Weather by CustomWeather, © 2015

See weather overviewHow to use our weather pages